Weather History for Valparaiso, FL

Change the Weather History Date:

Thursday, February 28, 2013

  Actual Average Record
Temperature  
Mean Temperature 53 °F -  
Max Temperature 61 °F 68 °F 56 °F (2014)
Min Temperature 45 °F 43 °F 29 °F (2014)
Degree Days  
Heating Degree Days 12    
Growing Degree Days 3 (Base 50)    
Moisture  
Dew Point 33 °F    
Average Humidity 52    
Maximum Humidity 90    
Minimum Humidity 22    
Precipitation  
Precipitation 0.00 in - - ()
Sea Level Pressure  
Sea Level Pressure 30.02 in    
Wind  
Wind Speed 8 mph (NW)    
Max Wind Speed 17 mph    
Max Gust Speed 24 mph    
Visibility 10 miles    
Events      
Averages and records for this station are not official NWS values.
T = Trace of Precipitation, MM = Missing Value Source: NWS Daily Summary

Daily Weather History Graph

Daily Weather History Graph

Search for Another Location

Airport:

Trip Planner

Search our weather history database for the weather conditions in past years. The results will help you decide how hot, cold, wet, or windy it might be!

Date:

Astronomy

Feb. 28, 2013 Rise Set
Actual Time 6:13 AM CST 5:44 PM CST
Civil Twilight 5:49 AM CST 6:08 PM CST
Nautical Twilight 5:21 AM CST 6:36 PM CST
Astronomical Twilight 4:53 AM CST 7:04 PM CST
Moon 8:52 PM CST (2/28) 7:38 AM CST (2/28)
Length of Visible Light 12h 19m
Length of Day
11h 31m
Waning Gibbous, 90% of the Moon is Illuminated
Feb 28
Waning Gibbous
Mar 4
Last Quarter
Mar 11
New
Mar 19
First Quarter
Mar 27
Full

Hourly Weather History & Observations

Time (CST) Temp. Windchill Dew Point Humidity Pressure Visibility Wind Dir Wind Speed Gust Speed Precip Events Conditions
12:55 AM 47.8 °F - 45.1 °F 90% 29.98 in 10.0 mi WNW 3.5 mph - N/A   Clear
1:55 AM 48.6 °F - 45.5 °F 89% 29.97 in 10.0 mi NW 3.5 mph - N/A   Clear
2:55 AM 49.1 °F - 43.9 °F 82% 29.97 in 10.0 mi NW 4.6 mph - N/A   Partly Cloudy
3:55 AM 48.2 °F - 41.4 °F 77% 29.97 in 10.0 mi NW 4.6 mph - N/A   Scattered Clouds
4:55 AM 47.1 °F - 40.1 °F 77% 29.99 in 10.0 mi NW 5.8 mph - N/A   Partly Cloudy
5:55 AM 46.0 °F 41.4 °F 39.4 °F 78% 30.03 in 10.0 mi NNW 9.2 mph - N/A   Partly Cloudy
6:55 AM 45.9 °F 41.7 °F 38.5 °F 75% 30.06 in 10.0 mi NNW 8.1 mph - N/A   Partly Cloudy
7:55 AM 49.5 °F - 34.5 °F 56% 30.07 in 10.0 mi NNW 10.4 mph - N/A   Partly Cloudy
8:55 AM 52.5 °F - 31.5 °F 45% 30.06 in 10.0 mi NW 13.8 mph - N/A   Scattered Clouds
9:00 AM 52.5 °F - 31.5 °F 45% 30.06 in 10.0 mi NW 13.8 mph - N/A   Scattered Clouds
9:55 AM 55.6 °F - 31.3 °F 40% 30.05 in 10.0 mi NW 10.4 mph 17.3 mph N/A   Scattered Clouds
10:55 AM 57.7 °F - 27.3 °F 31% 30.05 in 10.0 mi WNW 13.8 mph 20.7 mph N/A   Scattered Clouds
11:55 AM 59.7 °F - 29.3 °F 32% 30.03 in 10.0 mi NW 11.5 mph 20.7 mph N/A   Mostly Cloudy
12:54 PM 60.1 °F - 29.7 °F 32% 30.00 in 10.0 mi West 11.5 mph 19.6 mph N/A   Mostly Cloudy
1:55 PM 60.8 °F - 28.8 °F 30% 30.01 in 10.0 mi WNW 12.7 mph - N/A   Mostly Cloudy
2:55 PM 61.3 °F - 21.4 °F 22% 30.00 in 10.0 mi NW 17.3 mph 24.2 mph N/A   Overcast
3:55 PM 58.6 °F - 24.6 °F 27% 30.00 in 10.0 mi NW 13.8 mph - N/A   Overcast
4:55 PM 56.8 °F - 28.6 °F 34% 30.00 in 10.0 mi NW 9.2 mph - N/A   Overcast
5:55 PM 54.7 °F - 30.4 °F 40% 29.99 in 10.0 mi NNW 8.1 mph - N/A   Mostly Cloudy
6:55 PM 53.2 °F - 29.1 °F 40% 30.01 in 10.0 mi NW 9.2 mph - N/A   Overcast
7:55 PM 51.8 °F - 31.5 °F 46% 30.02 in 10.0 mi NW 6.9 mph - N/A   Overcast
8:55 PM 50.7 °F - 32.9 °F 51% 30.04 in 10.0 mi NW 6.9 mph - N/A   Overcast
9:55 PM 50.0 °F - 32.7 °F 52% 30.06 in 10.0 mi WNW 9.2 mph - N/A   Overcast
10:55 PM 49.5 °F - 33.1 °F 53% 30.05 in 10.0 mi NW 9.2 mph - N/A   Overcast
11:55 PM 48.6 °F - 33.8 °F 57% 30.06 in 10.0 mi NW 6.9 mph - N/A   Overcast